[[{"header":{"parameterUnit":"m.s-1","parameterCategory":1,"la1":30.2991,"la2":30.254,"lo1":-89.0895,"lo2":-89.0444,"dy":0.0017,"dx":0.0017,"nx":28,"ny":28,"refTime":"2023-05-26T21:00:00:Z","depth":0,"parameterNumber":2,"parameterNumberName":"U-component_of_WINDS"},"data":[0,0,0,0,0,0,0,0,0,0,0,0,0,0,0,0,0,0,0,0,0,0,0,0,0,0,0,0,0,0,0,0,0,0,0,0,0,0,0,0,0,0,0,0,0,0,0,0,0,0,0,0,0,0,0,0,0,0,-3.6801,-3.6806,0,-3.7225,-3.723,-3.7235,-3.7312,-3.7308,-3.7305,-3.7301,-3.7752,-3.7767,-3.7782,0,0,0,0,0,0,0,0,0,0,0,0,0,-3.6076,-3.6089,-3.6801,-3.6806,-3.6811,-3.7225,-3.7231,-3.7236,-3.7312,-3.7308,-3.7304,-3.73,-3.7747,-3.7765,-3.7784,0,0,0,0,0,0,0,0,0,0,0,0,0,-3.6435,-3.6093,-3.68,-3.6899,-3.6912,-3.7223,-3.7231,-3.7238,-3.7313,-3.7308,-3.7302,-3.7298,-3.7741,-3.7763,-3.7786,-3.8034,0,0,-3.7856,-3.7866,0,0,0,0,0,0,0,0,-3.6415,-3.6462,-3.6879,-3.6892,-3.6908,-3.721,-3.7141,-3.7506,-3.7314,-3.7161,-3.7301,-3.7295,-3.7577,-3.7613,-3.7705,-3.8055,-3.8075,-3.7858,-3.7872,-3.7882,-3.7889,0,0,0,0,0,0,0,-3.639,-3.6444,-3.6969,-3.6885,-3.6903,-3.6929,-3.6974,-3.721,-3.7395,-3.7174,-3.7181,-3.7229,-3.7584,-3.7683,-3.7716,-3.8081,-3.7858,-3.7878,-3.7892,-3.7901,-3.8663,-3.867,0,0,0,0,0,0,-3.6345,-3.6423,-3.6956,-3.6982,-3.6642,-3.6946,-3.6996,-3.7119,-3.7392,-3.7428,-3.7233,-3.7231,-3.7646,-3.7689,-3.7732,-3.8043,-3.7882,-3.7903,-3.7917,-3.8657,-3.8665,-3.8672,0,0,0,0,0,0,-3.6329,-3.6391,-3.6939,-3.6704,-3.6776,-3.6964,-3.7101,-3.713,-3.7228,-3.7436,-3.7471,-3.7298,-3.7644,-3.77,-3.7959,-3.8059,-3.7914,-3.7935,-3.8649,-3.8659,-3.8668,-3.8663,0,0,0,0,0,0,-3.6308,-3.6385,-3.6476,-3.6706,-3.6788,-3.7151,-3.7107,-3.7142,-3.7265,-3.7267,-3.7507,-3.7542,-3.7644,-3.7924,-3.7981,-3.8088,-3.7953,-3.8641,-3.8654,-3.8665,-3.8655,-3.8672,-3.8686,0,0,0,0,0,-3.6281,-3.646,-3.648,-3.6544,-3.6904,-3.7157,-3.7205,-3.7313,-3.7273,-3.7369,-3.7505,-3.7534,-3.804,-3.795,-3.8015,-3.813,-3.8635,-3.865,-3.8664,-3.8649,-3.8669,-3.8685,0,0,0,0,0,0,-3.6242,-3.6492,-3.6516,-3.6773,-3.6943,-3.7169,-3.7293,-3.7331,-3.7519,-3.7513,-3.7646,-3.77,-3.7952,-3.8069,-3.7963,-3.8388,-3.8336,-3.8364,-3.8301,-3.8322,-3.8337,-3.8303,-3.7972,0,0,0,0,0,-3.6262,-3.644,-3.6652,-3.6859,-3.6942,-3.7103,-3.7217,-3.7287,-3.747,-3.7543,-3.7697,-3.7878,-3.8079,-3.8208,-3.8403,-3.8675,-3.8731,-3.8787,-3.8802,-3.8814,-3.8836,-3.8993,-3.9021,-3.872,-3.8719,-3.8719,0,0,-3.6307,-3.6466,-3.6571,-3.6855,-3.6994,-3.7181,-3.7163,-3.7361,-3.7503,-3.7575,-3.7826,-3.7947,-3.816,-3.8426,-3.8551,-3.8531,-3.8933,-3.8832,-3.884,-3.8856,-3.901,-3.9039,-3.9064,-3.8729,-3.8728,-3.8726,0,0,-3.6484,-3.6621,-3.6809,-3.6949,-3.7159,-3.7266,-3.7312,-3.7534,-3.7615,-3.787,-3.7928,-3.8105,-3.8445,-3.8595,-3.8715,-3.8957,-3.8993,-3.9018,-3.9096,-3.9247,-3.9271,-3.9293,-3.938,-3.941,-3.9041,-3.9041,-3.9041,0,-3.6514,-3.6792,-3.6902,-3.7098,-3.7224,-3.7295,-3.7491,-3.7624,-3.789,-3.7978,-3.795,-3.8383,-3.8531,-3.8835,-3.8893,-3.8989,-3.905,-3.8989,-3.9258,-3.9281,-3.9303,-3.9388,-3.942,-3.9042,-3.9042,-3.9042,-3.9042,0,-3.6821,-3.7014,-3.7142,-3.7391,-3.7533,-3.7728,-3.7874,-3.8005,-3.8066,-3.8178,-3.844,-3.8621,-3.8856,-3.8935,-3.8996,-3.9251,-3.9231,-3.923,-3.9179,-3.9331,-3.9413,-3.9447,-3.9044,-3.9044,-3.9043,-3.9043,0,0,-3.6977,-3.7288,-3.7333,-3.7449,-3.769,-3.7845,-3.8048,-3.8273,-3.8384,-3.8569,-3.8744,-3.9035,-3.9036,-3.9173,-3.9254,-3.9387,-3.957,-3.9371,-3.9378,-3.9401,-3.9864,-3.9861,-3.9896,-3.9597,-3.9603,-3.9609,-3.9846,0,-3.7182,-3.7536,-3.7645,-3.7945,-3.8128,-3.8203,-3.838,-3.8551,-3.8664,-3.8841,-3.897,-3.9172,-3.9158,-3.9242,-3.9377,-3.9518,-3.9664,-3.9503,-3.9766,-3.9774,-3.9706,-3.9939,-3.9936,-4.0151,-3.9879,-3.9885,-3.9889,0,-3.7465,-3.7649,-3.7965,-3.8187,-3.8268,-3.8424,-3.8642,-3.8809,-3.9009,-3.9082,-3.9238,-3.9309,-3.9531,-3.9471,-3.9782,-3.967,-3.9786,-3.9873,-3.9884,-3.9911,-3.9837,-3.9971,-4.0222,-4.0253,-3.994,-3.9936,-3.9932,0,-3.7547,-3.7876,-3.8108,-3.8205,-3.8469,-3.8578,-3.8695,-3.8888,-3.9018,-3.9213,-3.93,-3.952,-3.964,-3.9812,-3.9944,-3.9887,-4.0245,-4.0194,-4.0315,-4.0312,-4.0383,-4.0376,-4.0654,-4.0462,-4.0461,-4.0461,-4.046,0,-3.7761,-3.7952,-3.8148,-3.829,-3.851,-3.8638,-3.8854,-3.8976,-3.9148,-3.9321,-3.9404,-3.9566,-3.9731,-3.9918,-4.0024,-4.0267,-4.0322,-4.0391,-4.0417,-4.0382,-4.0373,-4.0457,-4.0445,-4.047,-4.0468,-4.0466,-4.0464,0,-3.7886,-3.8025,-3.8283,-3.8513,-3.8576,-3.8727,-3.8927,-3.9073,-3.9191,-3.941,-3.947,-3.9657,-3.9882,-4.0031,-4.032,-4.0392,-4.0657,-4.068,-4.0586,-4.0598,-4.071,-4.0697,-4.1049,-4.1103,-4.0876,-4.0878,-4.088,0,-3.8012,-3.816,-3.8406,-3.8525,-3.864,-3.8832,-3.8965,-3.9102,-3.9238,-3.948,-3.9598,-3.9827,-4.0016,-4.0374,-4.054,-4.0764,-4.0792,-4.0901,-4.0826,-4.0788,-4.0793,-4.0781,-4.0798,-4.0911,-4.0913,-4.0914,-4.0915,0,-3.822,-3.8283,-3.8467,-3.8679,-3.8835,-3.901,-3.9185,-3.9281,-3.9449,-3.9601,-3.9828,-3.9975,-4.027,-4.0498,-4.0738,-4.0867,-4.0921,-4.0939,-4.0978,-4.0942,-4.0881,-4.0916,-4.0616,-4.0929,-4.0927,-4.0926,-4.0926,-4.0925,-3.8349,-3.8485,-3.8679,-3.8885,-3.9032,-3.9195,-3.9343,-3.9481,-3.9671,-3.9917,-3.999,-4.0228,-4.0433,-4.0759,-4.0893,-4.1086,-4.1076,-4.1133,-4.1147,-4.1158,-4.1158,-4.0853,-4.1131,-4.1131,-4.1131,-4.1131,-4.1131,0,-3.856,-3.869,-3.8878,-3.9119,-3.9284,-3.9318,-3.9517,-3.9653,-3.986,-4.0043,-4.0228,-4.0494,-4.0718,-4.0904,-4.1137,-4.1257,-4.1289,-4.1314,-4.1305,-4.1334,-4.1155,-4.1096,-4.1285,-4.1284,-4.1284,-4.1284,-4.1284,-4.1284,-3.8688,-3.8921,-3.9008,-3.9318,-3.9449,-3.9678,-3.9789,-3.9944,-4.0091,-4.0381,-4.0565,-4.0684,-4.0872,-4.1121,-4.133,-4.138,-4.1462,-4.1481,-4.1537,-4.1364,-4.1347,-4.133,-4.1275,-4.1498,-4.1499,-4.17,-4.1702,-4.1703]},{"header":{"parameterUnit":"m.s-1","parameterCategory":1,"la1":30.2991,"la2":30.254,"lo1":-89.0895,"lo2":-89.0444,"dy":0.0017,"dx":0.0017,"nx":28,"ny":28,"refTime":"2023-05-26T21:00:00:Z","depth":0,"parameterNumber":3,"parameterNumberName":"V-component_of_WINDS"},"data":[0,0,0,0,0,0,0,0,0,0,0,0,0,0,0,0,0,0,0,0,0,0,0,0,0,0,0,0,0,0,0,0,0,0,0,0,0,0,0,0,0,0,0,0,0,0,0,0,0,0,0,0,0,0,0,0,0,0,-1.7485,-1.7484,0,-1.7375,-1.7373,-1.7372,-1.73,-1.7299,-1.7299,-1.7298,-1.7177,-1.7174,-1.7171,0,0,0,0,0,0,0,0,0,0,0,0,0,-1.7626,-1.7624,-1.7485,-1.7484,-1.7482,-1.7375,-1.7373,-1.7372,-1.73,-1.7299,-1.7299,-1.7298,-1.7178,-1.7174,-1.7171,0,0,0,0,0,0,0,0,0,0,0,0,0,-1.7545,-1.7623,-1.7485,-1.7434,-1.7428,-1.7375,-1.7373,-1.7371,-1.73,-1.7299,-1.7298,-1.7298,-1.7179,-1.7175,-1.717,-1.7158,0,0,-1.7157,-1.7156,0,0,0,0,0,0,0,0,-1.755,-1.754,-1.7443,-1.7437,-1.7431,-1.735,-1.7378,-1.7299,-1.73,-1.7348,-1.7298,-1.7298,-1.7234,-1.7226,-1.7206,-1.7152,-1.7147,-1.7157,-1.7154,-1.7153,-1.7151,0,0,0,0,0,0,0,-1.7555,-1.7544,-1.7441,-1.7441,-1.7434,-1.7413,-1.7401,-1.7363,-1.7296,-1.7344,-1.7338,-1.7327,-1.7231,-1.721,-1.7203,-1.7145,-1.7157,-1.7153,-1.7151,-1.7149,-1.7074,-1.7075,0,0,0,0,0,0,-1.757,-1.7549,-1.7445,-1.7438,-1.749,-1.7411,-1.7398,-1.7377,-1.7296,-1.7284,-1.7328,-1.7324,-1.7218,-1.7208,-1.7198,-1.7178,-1.7153,-1.7149,-1.7146,-1.7074,-1.7074,-1.7075,0,0,0,0,0,0,-1.7573,-1.7562,-1.7449,-1.7492,-1.7476,-1.741,-1.7387,-1.7375,-1.7354,-1.7284,-1.7271,-1.7319,-1.7217,-1.7204,-1.7169,-1.7173,-1.7147,-1.7143,-1.7073,-1.7074,-1.7075,-1.7138,0,0,0,0,0,0,-1.7578,-1.7563,-1.756,-1.7493,-1.7474,-1.7424,-1.7387,-1.7373,-1.7348,-1.7342,-1.7273,-1.7261,-1.7215,-1.7176,-1.7165,-1.7166,-1.714,-1.7072,-1.7073,-1.7074,-1.7135,-1.7141,-1.7146,0,0,0,0,0,-1.7583,-1.758,-1.756,-1.7548,-1.7469,-1.7425,-1.7414,-1.7365,-1.7349,-1.7343,-1.7298,-1.7263,-1.7174,-1.7173,-1.716,-1.716,-1.7072,-1.7073,-1.7074,-1.7133,-1.714,-1.7146,0,0,0,0,0,0,-1.7646,-1.757,-1.7547,-1.7523,-1.7481,-1.7413,-1.7405,-1.7373,-1.7333,-1.7329,-1.7266,-1.7251,-1.7222,-1.7187,-1.7187,-1.7143,-1.7119,-1.7117,-1.7168,-1.7174,-1.7179,-1.7188,-1.7136,0,0,0,0,0,-1.7658,-1.7631,-1.7565,-1.7549,-1.753,-1.7471,-1.745,-1.7416,-1.7369,-1.735,-1.7302,-1.7256,-1.7218,-1.7194,-1.7154,-1.713,-1.7113,-1.7124,-1.7129,-1.7134,-1.7133,-1.7117,-1.7121,-1.7079,-1.7079,-1.7079,0,0,-1.768,-1.7635,-1.7622,-1.7561,-1.7525,-1.7496,-1.7457,-1.7428,-1.7406,-1.7345,-1.731,-1.7273,-1.7217,-1.7188,-1.7172,-1.7157,-1.7141,-1.7135,-1.714,-1.7136,-1.7119,-1.7123,-1.7127,-1.708,-1.708,-1.708,0,0,-1.7706,-1.7671,-1.7654,-1.762,-1.7566,-1.7527,-1.7524,-1.746,-1.7434,-1.7399,-1.7353,-1.7324,-1.7259,-1.7221,-1.7193,-1.7207,-1.7172,-1.7195,-1.7223,-1.7208,-1.7211,-1.7214,-1.7218,-1.7221,-1.7195,-1.7195,-1.7195,0,-1.774,-1.7699,-1.7649,-1.7624,-1.7598,-1.7545,-1.7527,-1.7494,-1.743,-1.7412,-1.7397,-1.7316,-1.7274,-1.7235,-1.7239,-1.7218,-1.721,-1.7203,-1.7215,-1.7217,-1.7219,-1.7223,-1.7224,-1.7198,-1.7198,-1.7198,-1.7197,0,-1.7743,-1.7714,-1.7707,-1.765,-1.7623,-1.7601,-1.7546,-1.7524,-1.7492,-1.7454,-1.7418,-1.7366,-1.7316,-1.7304,-1.7271,-1.726,-1.7253,-1.7228,-1.7201,-1.7227,-1.7229,-1.723,-1.7203,-1.7202,-1.7201,-1.72,0,0,-1.7805,-1.7722,-1.772,-1.7694,-1.7632,-1.7607,-1.7582,-1.7536,-1.7519,-1.7476,-1.7452,-1.7399,-1.7376,-1.7345,-1.7307,-1.7294,-1.7308,-1.727,-1.7268,-1.7279,-1.7292,-1.7312,-1.7314,-1.7285,-1.7285,-1.7285,-1.7297,0,-1.7822,-1.7778,-1.7733,-1.7704,-1.7677,-1.7626,-1.7604,-1.7562,-1.7526,-1.7495,-1.7453,-1.7417,-1.7389,-1.737,-1.7355,-1.731,-1.731,-1.7308,-1.7261,-1.726,-1.7277,-1.7315,-1.7336,-1.7349,-1.7297,-1.7297,-1.7297,0,-1.7836,-1.78,-1.7769,-1.771,-1.7697,-1.7678,-1.7633,-1.7605,-1.7555,-1.7529,-1.7496,-1.7457,-1.7425,-1.7403,-1.7359,-1.7359,-1.7336,-1.7311,-1.731,-1.7303,-1.728,-1.731,-1.7352,-1.7355,-1.7298,-1.7298,-1.7298,0,-1.7885,-1.7827,-1.7802,-1.778,-1.7711,-1.77,-1.7669,-1.762,-1.7595,-1.7554,-1.7537,-1.7492,-1.7467,-1.7432,-1.7381,-1.7369,-1.7341,-1.7315,-1.7317,-1.7319,-1.7314,-1.7315,-1.7353,-1.73,-1.73,-1.73,-1.7299,0,-1.7909,-1.7892,-1.7823,-1.7807,-1.7786,-1.7734,-1.7713,-1.7678,-1.7635,-1.761,-1.7562,-1.7538,-1.7473,-1.7441,-1.74,-1.7369,-1.7358,-1.7335,-1.7324,-1.7339,-1.7342,-1.7323,-1.7321,-1.73,-1.73,-1.73,-1.73,0,-1.7959,-1.7913,-1.7882,-1.782,-1.7804,-1.7791,-1.7736,-1.7718,-1.768,-1.7648,-1.7638,-1.7576,-1.7536,-1.7482,-1.7424,-1.7397,-1.7371,-1.7354,-1.7389,-1.7383,-1.7389,-1.7389,-1.7417,-1.7417,-1.7364,-1.7365,-1.7365,0,-1.7978,-1.7964,-1.7902,-1.7883,-1.7856,-1.7826,-1.7801,-1.7748,-1.7724,-1.7668,-1.7656,-1.7613,-1.7576,-1.7514,-1.7463,-1.7418,-1.74,-1.7413,-1.7393,-1.7408,-1.74,-1.7402,-1.74,-1.7417,-1.7418,-1.7419,-1.742,0,-1.8015,-1.7993,-1.7962,-1.7922,-1.7895,-1.786,-1.7823,-1.7809,-1.7748,-1.7723,-1.7684,-1.7656,-1.7598,-1.7556,-1.7505,-1.747,-1.7434,-1.7427,-1.7425,-1.744,-1.7461,-1.745,-1.7403,-1.7426,-1.7425,-1.7425,-1.7425,-1.7424,-1.805,-1.8036,-1.799,-1.7956,-1.7924,-1.789,-1.7871,-1.7831,-1.7798,-1.775,-1.772,-1.7682,-1.7632,-1.756,-1.7528,-1.7495,-1.7481,-1.7478,-1.7478,-1.7478,-1.7483,-1.7467,-1.7486,-1.7485,-1.7485,-1.7485,-1.7485,0,-1.8085,-1.8054,-1.8023,-1.7975,-1.7948,-1.792,-1.7877,-1.7856,-1.7824,-1.7782,-1.7748,-1.7702,-1.7661,-1.7607,-1.7562,-1.7546,-1.7528,-1.7536,-1.7536,-1.7529,-1.7499,-1.7505,-1.7551,-1.7551,-1.7551,-1.7551,-1.7551,-1.7551,-1.81,-1.8075,-1.8048,-1.8005,-1.7973,-1.7938,-1.7916,-1.7885,-1.7851,-1.7804,-1.7771,-1.7737,-1.769,-1.7641,-1.7602,-1.7586,-1.7572,-1.7584,-1.7564,-1.7537,-1.7531,-1.7525,-1.7531,-1.7582,-1.7582,-1.7597,-1.7597,-1.7597]}]]